TimeEDT,TemperatureF,Dew PointF,Humidity,Sea Level PressureIn,VisibilityMPH,Wind Direction,Wind SpeedMPH,Gust SpeedMPH,PrecipitationIn,Events,Conditions,WindDirDegrees,DateUTC
12:15 AM,53.6,33.8,47,29.79,10.0,SW,4.6,-,N/A,,Overcast,230,2013-10-22 04:15:00
12:35 AM,53.6,33.8,47,29.79,10.0,SW,10.4,-,N/A,Rain,Rain,220,2013-10-22 04:35:00
12:55 AM,51.8,35.6,54,29.79,10.0,SW,12.7,24.2,N/A,,Overcast,230,2013-10-22 04:55:00
1:15 AM,50.0,41.0,71,29.80,10.0,West,4.6,-,N/A,,Light Drizzle,280,2013-10-22 05:15:00
1:35 AM,46.4,44.6,93,29.80,10.0,West,9.2,17.3,N/A,Rain,Rain,280,2013-10-22 05:35:00
1:55 AM,46.4,42.8,87,29.80,10.0,West,6.9,17.3,N/A,Rain,Rain,260,2013-10-22 05:55:00
2:15 AM,44.6,42.8,93,29.80,10.0,WSW,6.9,-,N/A,Rain,Rain,250,2013-10-22 06:15:00
2:35 AM,44.6,42.8,93,29.79,10.0,WSW,6.9,-,N/A,,Drizzle,240,2013-10-22 06:35:00
2:55 AM,44.6,42.8,93,29.78,10.0,WSW,6.9,-,N/A,Rain,Rain,240,2013-10-22 06:55:00
3:15 AM,44.6,42.8,93,29.78,10.0,WSW,5.8,-,N/A,Rain,Light Rain,240,2013-10-22 07:15:00
3:35 AM,44.6,42.8,93,29.77,10.0,SW,9.2,-,N/A,Rain,Rain,220,2013-10-22 07:35:00
3:55 AM,44.6,42.8,93,29.77,10.0,SW,9.2,16.1,N/A,,Drizzle,230,2013-10-22 07:55:00
4:15 AM,44.6,42.8,93,29.76,10.0,SW,3.5,-,N/A,,Drizzle,230,2013-10-22 08:15:00
4:35 AM,44.6,42.8,93,29.76,10.0,WSW,5.8,-,N/A,Rain,Light Rain,240,2013-10-22 08:35:00
4:55 AM,42.8,41.0,93,29.78,7.0,WNW,9.2,21.9,N/A,Rain,Rain,300,2013-10-22 08:55:00
5:15 AM,41.0,39.2,93,29.78,10.0,WNW,11.5,18.4,N/A,Rain,Rain,290,2013-10-22 09:15:00
5:35 AM,39.2,37.4,93,29.78,10.0,West,5.8,-,N/A,Rain,Light Rain,280,2013-10-22 09:35:00
5:55 AM,39.2,37.4,93,29.77,10.0,West,4.6,-,N/A,Rain,Light Rain,280,2013-10-22 09:55:00
6:15 AM,39.2,39.2,100,29.79,10.0,West,5.8,-,N/A,,Drizzle,270,2013-10-22 10:15:00
6:35 AM,39.2,37.4,93,29.79,10.0,West,5.8,-,N/A,Rain,Rain,270,2013-10-22 10:35:00
6:55 AM,37.4,37.4,100,29.80,7.0,West,5.8,-,N/A,,Drizzle,260,2013-10-22 10:55:00
7:15 AM,37.4,37.4,100,29.79,10.0,WSW,4.6,-,N/A,Rain,Light Rain,240,2013-10-22 11:15:00
7:35 AM,37.4,37.4,100,29.80,10.0,WSW,5.8,-,N/A,,Overcast,240,2013-10-22 11:35:00
7:55 AM,37.4,37.4,100,29.80,10.0,WSW,4.6,-,N/A,,Overcast,250,2013-10-22 11:55:00
8:15 AM,37.4,37.4,100,29.80,10.0,WSW,4.6,-,N/A,,Overcast,240,2013-10-22 12:15:00
8:35 AM,39.2,37.4,93,29.80,10.0,WSW,6.9,-,N/A,,Overcast,240,2013-10-22 12:35:00
8:55 AM,39.2,37.4,93,29.80,10.0,WSW,9.2,-,N/A,,Overcast,240,2013-10-22 12:55:00
9:15 AM,39.2,37.4,93,29.81,10.0,WSW,4.6,-,N/A,,Overcast,240,2013-10-22 13:15:00
9:35 AM,39.2,37.4,93,29.81,10.0,WSW,8.1,-,N/A,,Overcast,250,2013-10-22 13:35:00
9:55 AM,35.6,33.8,93,29.82,5.0,West,12.7,20.7,N/A,Rain,Light Rain,280,2013-10-22 13:55:00
10:15 AM,35.6,33.8,93,29.83,10.0,WNW,6.9,19.6,N/A,Rain,Light Rain,290,2013-10-22 14:15:00
10:35 AM,35.6,33.8,93,29.83,10.0,WNW,9.2,19.6,N/A,,Overcast,290,2013-10-22 14:35:00
10:55 AM,35.6,32.0,87,29.83,10.0,West,6.9,23.0,N/A,,Overcast,280,2013-10-22 14:55:00
11:15 AM,37.4,32.0,81,29.83,10.0,West,4.6,18.4,N/A,,Mostly Cloudy,280,2013-10-22 15:15:00
11:35 AM,39.2,32.0,75,29.84,10.0,WNW,9.2,-,N/A,,Mostly Cloudy,290,2013-10-22 15:35:00
11:55 AM,41.0,33.8,76,29.83,10.0,West,4.6,-,N/A,,Mostly Cloudy,280,2013-10-22 15:55:00
12:15 PM,41.0,32.0,70,29.83,10.0,West,9.2,16.1,N/A,,Mostly Cloudy,260,2013-10-22 16:15:00
12:35 PM,41.0,30.2,65,29.83,10.0,West,10.4,19.6,N/A,,Mostly Cloudy,260,2013-10-22 16:35:00
12:55 PM,41.0,30.2,65,29.83,10.0,West,8.1,-,N/A,,Overcast,280,2013-10-22 16:55:00
1:15 PM,44.6,32.0,61,29.82,10.0,NW,6.9,-,N/A,,Overcast,310,2013-10-22 17:15:00
1:35 PM,42.8,32.0,66,29.82,10.0,West,11.5,21.9,N/A,,Overcast,270,2013-10-22 17:35:00
1:55 PM,42.8,30.2,61,29.80,10.0,WSW,9.2,17.3,N/A,,Overcast,250,2013-10-22 17:55:00
2:15 PM,42.8,30.2,61,29.81,10.0,WSW,9.2,-,N/A,,Overcast,250,2013-10-22 18:15:00
2:35 PM,42.8,30.2,61,29.80,10.0,West,10.4,19.6,N/A,,Overcast,260,2013-10-22 18:35:00
2:55 PM,42.8,30.2,61,29.80,10.0,WSW,4.6,-,N/A,,Overcast,250,2013-10-22 18:55:00
3:15 PM,42.8,30.2,61,29.80,10.0,West,3.5,-,N/A,,Overcast,270,2013-10-22 19:15:00
3:35 PM,42.8,28.4,57,29.80,10.0,West,8.1,-,N/A,,Overcast,280,2013-10-22 19:35:00
3:55 PM,42.8,30.2,61,29.80,10.0,West,6.9,-,N/A,,Overcast,260,2013-10-22 19:55:00
4:15 PM,42.8,30.2,61,29.81,10.0,West,6.9,16.1,N/A,,Overcast,260,2013-10-22 20:15:00
4:35 PM,42.8,28.4,57,29.82,10.0,WSW,9.2,-,N/A,,Overcast,240,2013-10-22 20:35:00
4:55 PM,41.0,28.4,61,29.81,10.0,West,11.5,18.4,N/A,,Overcast,260,2013-10-22 20:55:00
5:15 PM,41.0,28.4,61,29.82,10.0,SW,5.8,-,N/A,,Overcast,230,2013-10-22 21:15:00
5:35 PM,41.0,30.2,65,29.82,10.0,West,3.5,-,N/A,,Overcast,260,2013-10-22 21:35:00
5:55 PM,41.0,30.2,65,29.81,10.0,WSW,8.1,-,N/A,,Mostly Cloudy,250,2013-10-22 21:55:00
6:15 PM,39.2,30.2,70,29.82,10.0,West,6.9,-,N/A,,Mostly Cloudy,270,2013-10-22 22:15:00
6:35 PM,39.2,30.2,70,29.82,10.0,West,4.6,-,N/A,,Mostly Cloudy,260,2013-10-22 22:35:00
6:55 PM,37.4,30.2,75,29.82,10.0,West,6.9,-,N/A,,Mostly Cloudy,260,2013-10-22 22:55:00
7:15 PM,37.4,30.2,75,29.82,10.0,WSW,3.5,-,N/A,,Scattered Clouds,240,2013-10-22 23:15:00
7:35 PM,37.4,30.2,75,29.82,10.0,WSW,4.6,-,N/A,,Mostly Cloudy,240,2013-10-22 23:35:00
7:55 PM,37.4,30.2,75,29.82,10.0,WSW,6.9,-,N/A,,Scattered Clouds,240,2013-10-22 23:55:00
8:15 PM,37.4,30.2,75,29.82,10.0,WSW,4.6,-,N/A,,Mostly Cloudy,240,2013-10-23 00:15:00
8:35 PM,37.4,28.4,70,29.82,10.0,SW,4.6,-,N/A,,Overcast,230,2013-10-23 00:35:00
8:55 PM,37.4,28.4,70,29.83,10.0,WSW,4.6,-,N/A,,Overcast,250,2013-10-23 00:55:00
9:15 PM,37.4,28.4,70,29.83,10.0,WSW,5.8,-,N/A,,Overcast,240,2013-10-23 01:15:00
9:35 PM,37.4,28.4,70,29.83,10.0,WSW,3.5,-,N/A,,Overcast,250,2013-10-23 01:35:00
9:55 PM,37.4,28.4,70,29.83,10.0,WSW,5.8,-,N/A,,Overcast,250,2013-10-23 01:55:00
10:35 PM,37.4,28.4,70,29.83,10.0,WSW,3.5,-,N/A,,Overcast,240,2013-10-23 02:35:00
11:15 PM,35.6,28.4,75,29.82,10.0,WSW,3.5,-,N/A,,Overcast,250,2013-10-23 03:15:00
11:35 PM,35.6,28.4,75,29.82,10.0,WSW,3.5,-,N/A,,Overcast,250,2013-10-23 03:35:00
11:55 PM,35.6,30.2,81,29.82,10.0,WSW,3.5,-,N/A,,Overcast,250,2013-10-23 03:55:00